OpenBCM V1.13 (Linux)

Packet Radio Mailbox

DB0FHN

[JN59NK Nuernberg]

 Login: GUEST





  
LU9DCE > KEP      02.08.19 20:34l 248 Lines 12266 Bytes #999 (0) @ WW
BID : 29346_LU9DCE
Read: DJ6UX GUEST
Subj: TLE 02 08
Path: DB0FHN<DB0BLO<DB0ERF<IZ3LSV<I3XTY<I0OJJ<VE2PKT<N3HYM<LU9DCE
Sent: 190802/1801Z 29346@LU9DCE.TOR.BA.ARG.SOAM LinBPQ6.0.17

>From lu9dce%lu9dce.tor.ba.arg.soam@i0ojj.ampr.org Fri Aug  2 20:02:07 2019
Received: from i0ojj.ampr.org by i0ojj.ampr.org (JNOS2.0k.3b) with SMTP
	id AA23932 ; Fri, 02 Aug 2019 20:02:07 +0200
Message-Id: <29346_LU9DCE@ve2pkt.bbs>
>From: lu9dce@lu9dce.tor.ba.arg.soam
X-JNOS-User-Port: Telnet   (ve2pkt @ 144.172.216.109)  -> Sending message

            __    _  _  ___  ____   ___  ____    ____  ____  ____
           (  )  / )( \/ _ \(    \ / __)(  __)  (  _ \(  _ \/ ___)
           / (_/\) \/ (\__  )) D (( (__  ) _)    ) _ ( ) _ (\___ \
           \____/\____/(___/(____/ \___)(____)  (____/(____/(____/
               ESTACION DE PACKET RADIO - BUENOS AIRES (GF05OM)
                   BOLETINES INFORMATIVOS PROGRAMADOS (BIP)
                  SLACKWARE LINUX - HELLOCODELINUX@GMAIL.COM
                          https://slacko.home.blog
+----------------------------------------------------------------------------+
OSCAR 7
1  7530U 74089B   19213.91611115 -.00000046 +00000-0 -74889-5 0  9997
2  7530 101.7480 181.1297 0011713 262.2582 160.7118 12.53639026045827
OSCAR 11 (UoSAT 2)
1 14781U 84021B   19213.95924587 +.00000028 +00000-0 +95013-5 0  9994
2 14781 097.6089 236.5792 0008834 164.4976 195.6511 14.83098042884328
OSCAR 19 (LUSAT)
1 20442U 90005G   19213.79983345 -.00000024 +00000-0 +73417-5 0  9994
2 20442 098.6500 155.7307 0012289 024.6879 335.4890 14.32929572542634
EYESAT A
1 22825U 93061C   19213.50890438 -.00000016  00000-0  11945-4 0  9993
2 22825  98.9054 203.1504 0007542 226.4587 133.5968 14.30063375348218
ITAMSAT
1 22826U 93061D   19213.92006876 -.00000017 +00000-0 +11322-4 0  9995
2 22826 098.8994 203.5570 0008235 213.2208 146.8458 14.30397113348224
RADIO ROSTO
1 23439U 94085A   19213.86132244 -.00000039 +00000-0 +84860-4 0  9996
2 23439 064.8177 044.6961 0146148 104.6240 257.0938 11.27568651012871
JAS 2
1 24278U 96046B   19214.43501045 -.00000042  00000-0 -93664-5 0  9998
2 24278  98.5435   1.7847 0351253 123.9206 239.5860 13.53093078133850
TECHSAT 1B
1 25397U 98043D   19213.82617794 -.00000025 +00000-0 +80695-5 0  9991
2 25397 098.6900 153.4397 0000141 291.0868 069.0295 14.23668279094150
ISS (ZARYA)
1 25544U 98067A   19214.26260083 -.00002712  00000-0 -37976-4 0  9994
2 25544  51.6446 132.6751 0006292 207.5338 302.2810 15.51016053182408
PCSAT
1 26931U 01043C   19213.54662604 -.00000029 +00000-0 +20525-4 0  9998
2 26931 067.0498 250.5139 0007358 275.6088 084.4174 14.30548235931175
SAUDISAT 1C
1 27607U 02058C   19214.14236908 -.00000033  00000-0  16275-4 0  9999
2 27607  64.5545 273.6947 0079701 247.9689 111.2934 14.75561976893596
CUTE-1
1 27844U 03031E   19213.90569008 +.00000022 +00000-0 +29779-4 0  9997
2 27844 098.6837 221.4575 0008586 262.5997 097.4205 14.22187557834533
CUBESAT XI 4
1 27848U 03031J   19214.54378854  .00000012  00000-0  25291-4 0  9993
2 27848  98.6915 222.5958 0008491 273.7109  86.3098 14.21781779834515
MOZHAYETS 4
1 27939U 03042A   19214.38910950  .00000030  00000-0  14038-4 0  9994
2 27939  98.0462 349.3468 0011728 287.7629  72.2310 14.66792836847093
CUBESAT XI 5
1 28895U 05043F   19213.94379219 +.00000066 +00000-0 +21505-4 0  9993
2 28895 097.9651 355.1725 0016199 207.6409 152.3934 14.63678795733728
CUTE-1.7+APD II
1 32785U 08021C   19213.78942831 +.00000118 +00000-0 +18353-4 0  9998
2 32785 097.5505 211.4261 0014564 113.8701 246.4044 14.88325900610175
DELFI C3
1 32789U 08021G   19213.70722362  .00000447  00000-0  33863-4 0  9997
2 32789  97.4612 262.0382 0011486 342.7860  17.2977 15.07023510613594
SEEDS
1 32791U 08021J   19213.59939867 +.00000102 +00000-0 +15722-4 0  9999
2 32791 097.5283 217.2625 0015069 091.6150 268.6795 14.90842496610575
YUBELEINY
1 32953U 08025A   19214.47412587  .00000020  00000-0  75656-4 0  9997
2 32953  82.5034 116.9210 0020273  33.0512 327.1829 12.43090780507877
PRISM (HITOMI)
1 33493U 09002B   19213.85422116 +.00000405 +00000-0 +40971-4 0  9992
2 33493 098.1203 136.4841 0015993 041.0166 319.2254 14.96684196571743
KKS-1 (KISEKI)
1 33499U 09002H   19213.89128029 +.00000039 +00000-0 +13781-4 0  9990
2 33499 098.3481 054.0027 0010434 068.8163 291.4159 14.75451634565316
SWISSCUBE
1 35932U 09051B   19214.11955747  .00000060  00000-0  24671-4 0  9993
2 35932  98.5921  21.4020 0008265  37.3970 322.7801 14.56296434523240
BEESAT
1 35933U 09051C   19214.46335041  .00000059  00000-0  24239-4 0  9999
2 35933  98.5945  23.5343 0006705  50.0561 310.1224 14.56384319523401
ITUPSAT 1
1 35935U 09051E   19213.92817289 +.00000019 +00000-0 +15518-4 0  9996
2 35935 098.6055 023.2178 0008963 046.9606 313.2340 14.55542433523046
XIWANG-1 (HOPE-1)
1 36122U 09072B   19213.66642421 -.00000036  00000-0  16154-4 0  9990
2 36122 100.0739 213.9795 0006788 244.8225 115.2185 13.16350234462663
TISAT 1
1 36799U 10035E   19213.97150069  .00000323  00000-0  38652-4 0  9992
2 36799  98.1611   7.6055 0011069 304.4274  55.5896 14.91125867491361
JUGNU
1 37839U 11058B   19213.96731894 +.00000278 +00000-0 +66176-5 0  9996
2 37839 019.9623 066.2825 0018914 095.3297 039.2744 14.12654674403410
SRMSAT
1 37841U 11058D   19213.92698441 +.00000276 +00000-0 +62531-5 0  9994
2 37841 019.9720 124.2168 0011742 322.8925 112.9287 14.10635653402856
M-CUBED/EXP-1 PRIME
1 37855U 11061F   19214.46054973  .00000746  00000-0  45466-4 0  9998
2 37855 101.7106 133.0364 0173223 304.1713  54.3179 15.05509680423516
HORYU 2
1 38340U 12025D   19213.64806080 +.00000090 +00000-0 +21216-4 0  9991
2 38340 098.3262 253.5508 0011127 351.1390 008.9620 14.75732831377230
STRAND 1
1 39090U 13009E   19213.64139118 -.00000003  00000-0  14187-4 0  9992
2 39090  98.4851  58.8547 0009615 151.5627 208.6085 14.35091461336693
SOMP
1 39134U 13015E   19213.56808220 +.00000522 +00000-0 +33190-4 0  9996
2 39134 064.8617 238.2806 0033679 296.0124 063.7536 15.20220539347266
BEESAT 3
1 39135U 13015F   19214.22713666  .00000336  00000-0  26556-4 0  9991
2 39135  64.8686 255.0716 0027409 312.0715  47.8080 15.17522009347001
BEESAT 2
1 39136U 13015G   19214.47872781  .00000119  00000-0  16044-4 0  9993
2 39136  64.8687 258.2141 0021405 300.6574  59.2441 15.16945650346968
CUBEBUG 1
1 39153U 13018D   19214.16492564  .00000080  00000-0  17313-4 0  9995
2 39153  97.9802 312.0434 0018108  57.5153 302.7806 14.80578862338390
ZACUBE
1 39417U 13066B   19213.95530398 +.00000111 +00000-0 +20513-4 0  9996
2 39417 097.5619 224.9692 0057439 248.3564 111.1526 14.81129897307598
TRITON 1
1 39427U 13066M   19213.90117812 +.00000161 +00000-0 +33549-4 0  9992
2 39427 097.6794 188.5539 0114555 024.6448 336.0171 14.67857620304630
GOMX 1
1 39430U 13066Q   19214.19296786  .00000082  00000-0  23553-4 0  9992
2 39430  97.7496 167.8222 0152283 113.6461 248.0811 14.59265113303090
HUMSAT D
1 39433U 13066T   19213.67005618 +.00000430 +00000-0 +47115-4 0  9996
2 39433 097.5506 259.3722 0031613 151.4708 208.8250 14.92216266308450
CUBEBUG 2
1 39440U 13066AA  19213.95553985 +.00000099 +00000-0 +20991-4 0  9994
2 39440 097.6033 209.7818 0078899 301.8393 057.5154 14.75868132305306
FUNCUBE 1
1 39444U 13066AE  19213.93141643 +.00000145 +00000-0 +24299-4 0  9997
2 39444 097.5599 226.9353 0056623 241.9067 117.6416 14.81951607305894
UWE-3
1 39446U 13066AG  19213.95155854 +.00000121 +00000-0 +22890-4 0  9999
2 39446 097.5816 216.8495 0068428 275.8328 083.5086 14.78402650305210
SPROUT
1 39770U 14029E   19214.36913040  .00000239  00000-0  32542-4 0  9999
2 39770  97.8858 317.3762 0008129 305.9254  54.1195 14.87373915281475
UNISAT 6
1 40012U 14033C   19214.54731453  .00000098  00000-0  22193-4 0  9995
2 40012  97.7521  79.2139 0057325 314.3269  45.3248 14.73990522275294
DUCHIFAT 1
1 40021U 14033M   19214.45169586  .00000154  00000-0  21557-4 0  9993
2 40021  97.9231 139.1938 0011339 262.7134  97.2795 14.90651042278217
QB50P1
1 40025U 14033R   19214.32274309  .00000171  00000-0  24225-4 0  9997
2 40025  97.9044 133.9342 0010970 273.8616  86.1346 14.88959733277967
CHUBUSAT 1
1 40300U 14070C   19214.29003156  .00000275  00000-0  14975-4 0  9996
2 40300  97.3249 287.3418 0018695 259.7924 144.3840 15.22118022262809
NUDT-PHONESAT
1 40900U 15049B   19214.46930300  .00001273  00000-0  57238-4 0  9996
2 40900  97.4367 223.3639 0013919  34.0128 124.9835 15.22889120214478
ZDPS 2A
1 40901U 15049C   19214.10430933  .00000395  00000-0  22862-4 0  9994
2 40901  97.4596 219.2850 0014786  52.3146 350.9001 15.17765380213973
ZDPS 2B
1 40902U 15049D   19214.07662723  .00000671  00000-0  36653-4 0  9995
2 40902  97.4544 216.7268 0014983  50.3524  35.1355 15.17596039213943
XW-2A
1 40903U 15049E   19214.22953645  .00001158  00000-0  29170-4 0  9996
2 40903  97.3349 257.2392 0013414 351.3578  77.7848 15.41952460217118
KAITUO 1A
1 40904U 15049F   19214.23460137  .00000054  00000-0  63778-5 0  9994
2 40904  97.4669 215.4795 0016115  56.2386  12.0075 15.15383911213746
OBJECT G
1 40905U 15049G   19214.55325582  .00000161  00000-0  12318-4 0  9996
2 40905  97.4708 213.3004 0017019  50.8035  64.0033 15.14310301213660
XW-2C
1 40906U 15049H   19214.36570287  .00000167  00000-0  12236-4 0  9995
2 40906  97.4680 215.7041 0016120  47.8380  59.8741 15.15702028213769
XW-2D
1 40907U 15049J   19214.53760196  .00000608  00000-0  35123-4 0  9995
2 40907  97.4658 215.5513 0015541  45.1643  72.4122 15.15895589213800
LILACSAT 2
1 40908U 15049K   19214.54657427  .00000404  00000-0  25936-4 0  9994
2 40908  97.4793 214.3575 0017298  50.6911  64.8828 15.13820468213592
XW-2F
1 40910U 15049M   19214.52305271  .00000632  00000-0  34985-4 0  9999
2 40910  97.4622 217.5893 0016009  38.3042  79.1831 15.17342527213818
XW-2B
1 40911U 15049N   19214.44828152  .00000177  00000-0  12737-4 0  9994
2 40911  97.4673 216.1198 0015366  46.7618 114.3061 15.15822077213688
